User: anonymous   Login
Location: Young's Pond
(41.2695°N, 72.7766°W)
Time: 11:10:22
(UTC-05:00)
Language:

Spot 4 - Orbit

View from above orbital plane
View from above orbital plane
View from above satellite
View from above satellite

Ground track
Ground track

The orbit data is extracted from the following two-line orbital elements,

1 25260U 98017A   15028.09402939  .00000198  00000-0  58860-4 0  5616
2 25260 098.4343 098.6673 0014126 069.4688 290.8022 14.53167234875326
Epoch (UTC): 28 January 2015 02:15:24
Eccentricity: 0.0014126
inclination: 98.4343°
perigee height: 705 km
apogee height: 725 km
right ascension of ascending node: 98.6673°
argument of perigee: 69.4688°
revolutions per day: 14.53167234
mean anomaly at epoch: 290.8022°
orbit number at epoch: 87532

The dashed part of the orbit path shows where the satellite is in the earth's shadow,  

DLR